Location: Carri�res
(48.9069°N, 2.1792°E)
Time: 12:45:04
(UTC+00:00)

Cosmos 1844 Rocket - Pass Details

Date: 17 January 2021
Orbit: 825 x 843 km, 71.0° (Epoch: 25 February)

Event Time Altitude Azimuth Distance (km) Brightness Sun altitude
Rises 18:59:47 0° 197° (SSW) 3,388 6.1 -24.8°
Reaches altitude 10° 19:02:14 10° 194° (SSW) 2,457 5.3 -25.2°
Enters shadow 19:07:19 63° 144° (SE) 938 2.7 -26.0°
